Content
SEND FEEDBACK

Daily
Averages
Monthly
Summary
United States of America

WEST MILFORD, NEW JERSEY


Home > North America > United States > New Jersey
Elevation: 717 feet     Latitude: 41 08N     Longitude: 074 20W

WEATHER
 
SELECT A DAY
Number of Records: 157,918;   Date Range: 3/7/98 - 8/12/14
 
SHARE

PRINT THIS DATA

[ ← Previous Day ]
WEATHER ALMANAC - FEBRUARY 13, 2013
[ Next Day → ]
[ °C ]   °F
Weather ElementAverageHighLow
Temperature33.7 °F41 °F (1:53 pm)21.9 °F (6:53 am)
Dewpoint24.1 °F30.9 °F (10:53 pm)18 °F (6:53 am)
Humidity69.6 %92 % (10:53 pm)47 % (1:53 pm)
Barometer29.80 in29.94 in (1:53 am)29.70 in (6:53 pm)
Wind Speed0.9 mph4.6 mph (11:53 am)
Weather ElementAverage
Visibility8.4 mi
Wind DirectionNNE (21.9 °)

Weather ElementTotal
Precipitation---
Heating Degree Days33.6 (Base 65)
Averaged from 26 records on February 13, 2013
WEATHER CONDITIONS BREAKOUT
WIND DIRECTION BREAKOUT
WEATHER BY HOUR - FEBRUARY 13, 2013
[ °C ]   °F
Local TimeTemperatureDewpointHumidityBarometerVisibilityWind DirectionWind SpeedGust SpeedPrecipitationEventsConditions
1:53 AM34.0 °F21.0 °F59 %29.94 in10.0 miCalmMostly Cloudy
2:53 AM34.0 °F19.9 °F56 %29.93 in10.0 miCalmOvercast
3:53 AM28.9 °F19.9 °F69 %29.92 in10.0 miCalmClear
4:53 AM26.1 °F19.9 °F78 %29.90 in10.0 miCalmClear
5:53 AM23.0 °F19.9 °F88 %29.90 in10.0 miCalmClear
6:53 AM21.9 °F18.0 °F85 %29.90 in8.0 miCalmClear
7:53 AM24.1 °F19.9 °F84 %29.91 in8.0 miCalmClear
8:53 AM28.0 °F21.9 °F78 %29.88 in10.0 miCalmClear
9:53 AM35.1 °F23.0 °F61 %29.86 in10.0 miCalm0.00 inClear
10:53 AM36.0 °F19.9 °F52 %29.86 in10.0 miSE (140°)3.5 mph0.00 inClear
11:53 AM37.9 °F21.0 °F51 %29.86 in10.0 miSE (140°)4.6 mphClear
12:53 PM39.0 °F21.9 °F50 %29.81 in10.0 miESE (120°)4.6 mphClear
1:53 PM41.0 °F21.9 °F47 %29.78 in10.0 miCalmClear
2:53 PM39.9 °F23.0 °F51 %29.75 in10.0 miEast (100°)3.5 mphClear
3:53 PM41.0 °F21.9 °F47 %29.74 in10.0 miCalmClear
4:53 PM39.9 °F24.1 °F53 %29.72 in10.0 miCalmMostly Cloudy
5:53 PM37.0 °F26.1 °F65 %29.71 in10.0 miCalmMostly Cloudy
6:53 PM35.1 °F28.0 °F76 %29.70 in10.0 miCalmOvercast
7:53 PM36.0 °F26.1 °F67 %29.71 in10.0 miCalmOvercast
8:53 PM35.1 °F28.0 °F76 %29.72 in8.0 miCalm0.00 inOvercast
9:53 PM35.1 °F28.9 °F78 %29.72 in5.0 miCalm0.00 inSnowLight Snow
10:34 PM33.8 °F30.2 °F87 %29.70 in2.5 miCalm0.00 inSnowLight Snow
10:53 PM33.1 °F30.9 °F92 %29.70 in2.5 miCalm0.00 inSnowLight Snow
10:59 PM33.8 °F30.2 °F87 %29.70 in3.0 miCalm0.00 inSnowLight Snow
11:32 PM33.8 °F30.2 °F87 %29.70 in7.0 miNE (40°)3.5 mph0.00 inOvercast
11:53 PM34.0 °F30.0 °F85 %29.72 in4.0 miNNE (30°)3.5 mph0.00 inSnowLight Snow
Hourly data recorded from KFWN, located miles away from West Milford, New Jersey







STORIES FROM OUR PARTNERS